Zurück zum Katalog

NOAA 16 DEB

AktivPO
NORAD 41258·DEBRIS·🇺🇸 United States

Gestartet Sep 21, 2000 von Vandenberg Space Force Base

Loading…

Nächste Überflüge (nächste 24 Stunden)

TLE

AktuellSource: Space-Track

Epoche: Sep 13, 2026, 17:12 UTC

1 41258U 00055FJ  26256.71733200  .00007173  00000-0  13632-2 0  9999
2 41258  98.9721 169.7953 0035633 135.3587 225.0492 14.64085935559514

Verfolge NOAA 16 DEB in Echtzeit mit AllMySat

Download on the App Store